Temp
64 64 64 64 64 64 64 63 63 64 65 64 64 64 64 64 64 65 65 65 65 65 65 65 65 64 67 61 58 70 67 69 71 69 64 62 61 58 56 56 56 54 55 56 59 58 58
64 64 64 64 63 63 63 63 63 63 63 64 63 63 63 64 64 64 64 64 65 65 65 65 65 64 65 54 69 70 69 69 68 67 64 64 59 59 56 55 54 54 55 56 57 57 58
64 64 64 63 63 63 63 62 62 62 62 63 63 62 62 62 63 64 65 65 65 64 64 65 65 68 63 56 69 71 69 66 67 66 61 63 62 59 57 53 56 54 49 56 55 56 55
64 64 64 63 63 63 62 62 62 62 62 62 61 61 61 62 62 62 63 64 64 64 64 65 65 68 56 68 72 69 70 67 69 68 65 64 63 59 56 58 54 51 50 47 54 56 57
64 63 63 63 63 63 62 62 62 62 61 61 61 60 61 61 61 61 61 63 63 64 65 65 67 65 55 69 64 68 67 62 65 65 65 64 61 55 56 52 52 50 45 45 48 54 52
64 63 63 63 62 62 62 62 62 61 61 61 60 59 59 60 60 60 62 64 62 66 68 69 66 61 61 57 62 64 67 64 60 59 58 57 56 55 55 51 42 42 43 46 45 52 52
64 63 63 62 62 62 62 62 62 61 61 60 59 59 59 59 60 59 64 68 65 62 62 54 54 54 57 63 64 62 64 61 59 57 51 51 51 52 50 50 49 46 43 43 50 53 46
63 63 63 62 63 62 61 61 61 61 61 60 59 58 58 58 60 59 63 58 54 57 52 57 57 58 60 61 55 59 64 56 54 49 51 50 49 49 48 48 46 46 44 46 49 52 47
64 64 63 63 62 62 62 61 61 61 60 59 59 58 58 58 59 61 58 54 58 58 56 54 57 56 57 59 54 55 60 54 50 47 46 44 48 48 46 46 45 47 45 45 42 47 50
63 63 63 63 63 62 61 61 61 61 59 59 58 58 58 58 60 59 55 57 59 59 49 51 54 56 59 57 52 60 60 55 50 46 45 46 48 45 45 44 45 42 46 44 42 41 40
62 62 62 62 62 61 60 60 61 61 59 58 58 58 58 59 59 57 56 58 58 57 37 53 53 63 58 53 53 54 59 54 47 47 46 46 44 44 43 45 45 45 49 44 42 40 40
62 62 62 62 61 60 60 60 60 59 59 58 57 57 57 60 60 55 57 58 57 46 36 47 52 50 51 52 52 55 53 56 53 46 46 46 47 46 47 47 47 49 46 44 41 42 36
62 62 62 61 61 60 59 59 59 59 59 57 57 57 58 59 56 57 58 58 44 39 49 47 47 49 47 47 49 50 47 48 46 41 42 46 45 47 47 45 47 49 46 38 37 34 37
61 62 61 61 61 61 60 59 59 59 58 57 56 56 54 57 58 57 57 53 38 46 47 48 47 48 46 47 47 47 47 47 45 45 42 38 40 45 47 45 42 42 42 36 29 33 36
61 62 61 61 62 62 61 59 59 59 57 56 56 58 58 57 56 56 53 38 46 47 48 46 49 46 48 47 46 47 46 46 46 46 43 40 43 46 45 46 46 42 38 42 34 31 30
61 61 61 61 61 60 60 59 59 58 57 55 60 59 58 56 56 56 53 44 47 49 49 47 45 46 45 47 47 47 46 47 45 46 47 42 35 43 44 46 45 43 45 36 37 29 30
60 62 61 60 60 59 59 59 58 58 57 55 58 60 59 56 56 59 42 47 47 51 50 47 46 45 46 44 44 45 45 47 47 44 46 44 39 42 42 41 42 40 39 38 36 36 31
59 59 59 59 58 58 58 58 58 58 56 56 55 56 58 57 55 49 47 47 47 50 50 49 48 46 45 45 44 44 44 47 49 48 43 44 41 34 42 41 43 43 42 42 37 32 34
58 58 58 57 57 57 57 58 58 58 56 55 53 52 59 57 47 47 49 48 49 49 48 47 46 47 47 45 43 44 45 48 46 44 41 41 37 32 41 37 41 39 40 41 35 35 32
58 57 57 57 56 56 56 57 57 57 56 57 55 50 55 54 50 48 45 46 46 50 48 48 47 47 45 44 46 44 43 47 46 46 46 44 37 36 34 39 42 38 40 40 39 31 35
57 57 57 57 56 56 55 55 56 56 56 58 51 47 46 46 48 47 46 45 43 45 48 49 46 46 45 42 44 42 44 47 48 46 45 41 31 39 40 43 42 40 39 41 34 37 32
56 57 57 57 56 56 55 55 55 56 56 55 51 50 47 48 45 45 45 45 44 46 47 47 45 48 48 42 44 40 44 44 42 43 42 40 33 30 30 40 40 35 39 40 40 40 38
55 55 55 55 55 55 54 54 54 54 55 55 52 53 51 48 45 44 46 47 46 48 51 51 49 47 45 47 50 51 52 51 48 44 40 34 33 29 31 36 34 31 39 42 42 41 40
54 55 55 55 54 54 54 54 54 54 54 54 53 52 46 42 46 46 47 48 45 46 44 50 51 46 51 54 53 53 50 48 49 48 49 37 32 30 28 31 25 45 48 46 43 44 43
54 54 54 54 54 53 53 54 54 54 54 51 50 51 43 39 45 45 46 46 47 49 46 47 50 54 52 50 40 38 41 40 40 37 39 42 37 28 26 29 38 43 47 43 42 44 49
53 53 53 53 53 53 53 53 53 53 53 52 51 52 48 40 41 47 43 44 41 42 44 46 50 51 48 44 37 31 31 37 37 32 35 37 39 30 28 24 26 43 44 47 46 40 48
53 53 53 53 53 53 53 53 53 53 53 50 49 51 45 39 45 47 43 42 47 45 42 44 45 44 46 40 34 32 32 41 32 34 30 29 30 27 29 27 37 46 47 47 35 40 50
52 52 52 52 52 52 52 52 53 53 52 50 48 49 46 41 44 48 48 43 44 44 37 44 41 41 39 33 33 36 34 38 33 36 33 31 27 27 31 26 25 48 45 39 48 49 48
52 52 52 52 52 52 52 52 53 52 52 50 45 48 48 41 42 46 48 50 48 48 44 44 43 40 43 35 34 34 34 34 35 29 40 31 39 38 36 38 47 50 48 52 51 50 50
MSLP
1023.81 1023.42 1022.87 1022.37 1022.08 1021.78 1021.49 1021.16 1020.81 1020.51 1020.32 1020.13 1019.90 1019.68 1019.50 1019.37 1019.43 1019.44 1019.41 1019.39 1019.35 1019.31 1019.26 1019.16 1019.08 1019.01 1018.87 1018.80 1019.73 1019.91 1019.89 1019.32 1018.92 1018.69 1018.37 1018.13 1017.94 1018.11 1017.97 1018.38 1018.47 1018.28 1018.03 1018.06 1017.87 1017.62 1017.33
1024.23 1023.95 1023.59 1023.14 1022.62 1022.26 1022.03 1021.70 1021.48 1021.30 1021.03 1020.82 1020.66 1020.44 1020.25 1020.10 1020.02 1019.94 1019.83 1019.69 1019.51 1019.38 1019.36 1019.18 1019.00 1018.99 1018.84 1019.27 1020.07 1020.15 1019.95 1019.50 1019.26 1018.88 1018.74 1018.62 1018.93 1018.96 1018.57 1018.71 1018.69 1018.54 1018.35 1017.92 1017.54 1017.15 1016.93
1024.72 1024.30 1024.00 1023.68 1023.39 1023.00 1022.51 1022.18 1021.98 1021.68 1021.44 1021.34 1021.21 1021.03 1020.77 1020.55 1020.37 1020.16 1019.98 1019.83 1019.72 1019.61 1019.43 1019.23 1019.25 1018.98 1019.11 1020.36 1020.34 1020.22 1019.91 1019.78 1019.63 1019.43 1019.22 1019.48 1019.42 1019.05 1019.02 1018.92 1019.18 1018.83 1018.46 1017.46 1017.19 1017.08 1016.52
1025.10 1024.82 1024.43 1024.02 1023.68 1023.43 1023.18 1022.84 1022.49 1022.15 1021.94 1021.78 1021.57 1021.32 1021.07 1020.82 1020.57 1020.34 1020.11 1019.87 1019.69 1019.60 1019.50 1019.41 1019.27 1018.91 1019.75 1020.37 1020.29 1020.12 1019.83 1019.70 1019.77 1019.76 1019.70 1019.79 1019.73 1019.52 1019.33 1019.32 1018.97 1018.48 1018.29 1017.20 1016.94 1016.89 1016.27
1025.26 1025.08 1024.81 1024.51 1024.13 1023.64 1023.23 1023.01 1022.83 1022.56 1022.25 1021.94 1021.62 1021.33 1021.01 1020.70 1020.44 1020.22 1019.97 1019.84 1019.74 1019.63 1019.48 1019.32 1019.11 1019.03 1020.07 1020.34 1020.26 1020.25 1020.22 1019.99 1019.89 1019.89 1019.95 1019.96 1019.74 1019.54 1019.31 1018.75 1018.11 1018.35 1017.69 1017.46 1016.83 1016.92 1016.79
1025.51 1025.31 1025.05 1024.69 1024.42 1024.13 1023.74 1023.27 1022.75 1022.37 1022.06 1021.83 1021.62 1021.32 1020.97 1020.61 1020.27 1020.08 1019.76 1019.56 1019.61 1019.27 1019.27 1019.25 1019.56 1019.76 1020.51 1020.66 1020.60 1020.55 1020.42 1020.31 1020.05 1019.96 1019.92 1019.72 1019.53 1019.05 1019.00 1018.82 1018.42 1018.37 1017.98 1017.37 1017.19 1016.43 1016.17
1025.96 1025.62 1025.33 1025.00 1024.67 1024.34 1023.95 1023.60 1023.25 1022.91 1022.57 1022.11 1021.60 1021.25 1020.94 1020.63 1020.24 1019.96 1019.61 1019.54 1019.88 1020.16 1020.29 1020.90 1021.02 1020.95 1021.02 1021.00 1021.06 1020.58 1020.39 1020.30 1020.24 1020.03 1019.81 1020.22 1019.58 1018.88 1019.29 1019.45 1019.42 1019.29 1018.66 1017.59 1016.84 1016.68 1016.31
1026.41 1026.10 1025.76 1025.37 1024.94 1024.60 1024.19 1023.83 1023.36 1022.95 1022.61 1022.32 1022.07 1021.72 1021.26 1020.92 1020.68 1020.38 1020.12 1020.69 1021.81 1022.12 1021.76 1021.61 1021.46 1021.36 1021.35 1021.26 1020.82 1020.63 1020.56 1020.41 1020.27 1020.17 1020.32 1020.11 1019.58 1019.91 1020.11 1019.93 1019.67 1019.16 1018.41 1017.28 1016.74 1016.63 1016.73
1026.65 1026.36 1026.01 1025.69 1025.29 1024.90 1024.50 1024.00 1023.49 1023.03 1022.61 1022.29 1021.96 1021.60 1021.30 1021.09 1020.85 1020.87 1021.26 1022.20 1022.46 1022.25 1021.69 1021.78 1021.54 1021.33 1021.38 1021.37 1021.03 1020.85 1020.80 1020.92 1020.77 1020.61 1020.60 1020.42 1020.24 1020.50 1020.35 1019.91 1019.45 1018.63 1018.07 1017.58 1017.58 1016.75 1015.49
1027.02 1026.68 1026.30 1025.86 1025.43 1025.06 1024.87 1024.41 1023.90 1023.31 1022.66 1022.07 1021.68 1021.45 1021.18 1020.90 1021.14 1021.73 1022.02 1022.51 1022.47 1022.29 1021.71 1021.78 1021.34 1021.46 1021.40 1021.29 1021.16 1021.22 1021.22 1021.37 1021.04 1020.98 1020.95 1020.70 1020.75 1020.58 1020.27 1019.87 1019.67 1018.28 1018.20 1018.10 1017.50 1016.99 1015.41
1027.39 1027.06 1026.66 1026.25 1025.81 1025.28 1024.86 1024.49 1024.04 1023.53 1022.90 1022.36 1021.82 1021.42 1021.27 1020.60 1021.43 1021.96 1022.68 1022.60 1022.47 1022.18 1021.93 1022.03 1021.36 1021.35 1021.37 1021.49 1021.49 1021.30 1021.47 1021.21 1021.10 1021.12 1021.41 1020.67 1020.78 1020.67 1020.27 1019.78 1019.73 1018.39 1017.95 1017.88 1017.51 1016.89 1016.25
1027.68 1027.31 1026.93 1026.48 1026.03 1025.66 1025.16 1024.58 1024.01 1023.41 1022.98 1022.46 1021.94 1021.58 1021.40 1021.37 1021.66 1022.88 1022.80 1022.55 1022.40 1021.89 1021.73 1021.70 1021.38 1021.34 1021.14 1021.20 1021.18 1021.09 1021.22 1021.33 1021.32 1021.13 1021.17 1020.97 1021.42 1021.14 1020.43 1020.07 1019.78 1018.86 1017.74 1017.37 1017.36 1016.62 1015.60
1027.87 1027.49 1027.07 1026.66 1026.25 1025.83 1025.35 1024.83 1024.26 1023.61 1022.85 1022.47 1022.17 1021.94 1021.58 1022.08 1022.64 1022.79 1022.69 1022.12 1021.89 1021.58 1022.21 1021.71 1021.64 1021.56 1021.47 1021.10 1020.97 1020.99 1021.02 1020.94 1021.17 1020.89 1020.63 1020.64 1020.71 1020.85 1020.87 1020.06 1019.68 1018.81 1017.26 1016.60 1016.46 1015.84 1014.91
1028.05 1027.56 1027.23 1026.83 1026.46 1025.96 1025.49 1024.91 1024.31 1023.70 1022.98 1022.56 1022.32 1022.19 1022.63 1022.76 1023.00 1022.90 1022.47 1021.95 1021.48 1022.14 1021.87 1022.02 1021.77 1021.40 1021.22 1021.31 1021.11 1020.99 1020.85 1020.93 1021.55 1021.52 1021.32 1021.15 1020.44 1020.76 1020.87 1020.58 1020.21 1019.71 1019.23 1018.47 1018.16 1016.99 1015.39
1028.14 1027.69 1027.29 1026.85 1026.47 1026.03 1025.51 1025.04 1024.36 1023.68 1023.11 1022.48 1022.43 1022.41 1022.47 1022.74 1022.87 1022.94 1022.28 1021.88 1022.35 1022.29 1022.36 1022.09 1021.58 1021.27 1021.00 1021.21 1021.36 1020.93 1021.05 1021.24 1021.69 1021.85 1021.88 1021.59 1020.68 1020.75 1020.93 1020.97 1020.97 1020.01 1019.93 1020.24 1019.33 1018.88 1017.03
1028.10 1027.73 1027.28 1026.84 1026.40 1026.04 1025.57 1025.14 1024.52 1023.65 1023.11 1022.66 1022.30 1022.29 1022.45 1022.76 1022.73 1022.37 1021.72 1022.51 1022.58 1022.59 1022.56 1022.42 1021.82 1021.68 1021.10 1020.93 1020.88 1020.85 1020.91 1021.62 1022.10 1022.58 1022.61 1022.52 1021.83 1020.81 1021.03 1020.97 1021.18 1020.79 1020.81 1020.48 1020.03 1018.69 1016.27
1028.17 1027.73 1027.35 1026.99 1026.53 1026.16 1025.70 1025.21 1024.73 1024.00 1023.07 1022.68 1022.44 1022.09 1022.45 1022.54 1022.50 1021.87 1022.51 1022.90 1022.81 1022.75 1022.84 1022.80 1022.28 1021.85 1021.66 1021.50 1021.39 1021.16 1021.26 1021.75 1022.10 1022.74 1022.95 1022.85 1022.89 1021.31 1021.25 1020.87 1020.57 1021.07 1020.69 1020.78 1020.80 1019.84 1018.15
1028.33 1028.06 1027.68 1027.28 1026.81 1026.34 1025.90 1025.41 1024.86 1024.25 1023.39 1022.60 1022.67 1022.45 1022.48 1022.25 1022.26 1023.00 1023.06 1023.19 1023.14 1022.82 1022.87 1022.75 1022.64 1022.35 1022.06 1021.85 1021.53 1021.39 1021.46 1021.77 1022.37 1022.77 1023.01 1023.37 1023.04 1021.97 1020.73 1021.18 1021.27 1020.97 1020.63 1020.41 1020.17 1019.85 1018.98
1028.56 1028.22 1027.86 1027.52 1027.10 1026.57 1026.04 1025.61 1025.07 1024.55 1024.17 1023.81 1023.46 1023.13 1022.27 1022.15 1022.73 1023.31 1023.31 1023.18 1023.07 1022.87 1022.78 1022.78 1022.59 1022.54 1022.50 1022.16 1021.84 1021.59 1021.69 1022.11 1022.57 1022.87 1023.05 1023.51 1023.24 1022.10 1020.22 1021.28 1021.10 1020.76 1020.50 1020.47 1020.58 1020.12 1018.39
1028.68 1028.39 1028.08 1027.63 1027.26 1026.76 1026.25 1025.83 1025.46 1025.01 1024.65 1024.31 1024.03 1023.64 1023.04 1023.12 1024.21 1023.72 1023.62 1023.27 1022.95 1022.92 1022.81 1022.78 1022.76 1022.76 1022.60 1022.25 1022.16 1021.75 1021.80 1021.98 1022.59 1022.81 1023.09 1023.14 1022.96 1022.14 1020.98 1019.83 1019.82 1019.89 1019.60 1019.93 1019.69 1019.24 1017.49
1028.62 1028.45 1028.17 1027.82 1027.35 1027.05 1026.69 1026.20 1025.72 1025.37 1024.99 1024.73 1024.70 1024.93 1025.38 1024.33 1024.21 1024.15 1023.95 1023.61 1023.14 1022.93 1022.89 1022.79 1022.64 1022.59 1022.47 1022.21 1021.94 1021.65 1021.80 1021.79 1021.95 1022.51 1023.08 1023.36 1022.80 1021.81 1020.69 1019.99 1019.44 1018.71 1017.96 1018.14 1018.14 1017.39 1016.72
1028.64 1028.34 1028.08 1027.88 1027.56 1027.35 1026.98 1026.56 1026.15 1025.72 1025.34 1025.04 1025.26 1025.19 1025.54 1024.86 1024.85 1024.43 1023.99 1023.54 1023.29 1022.96 1022.88 1022.44 1022.45 1022.21 1022.31 1022.30 1022.13 1021.55 1021.58 1021.77 1021.72 1022.34 1022.79 1023.23 1022.38 1022.04 1020.78 1019.48 1018.64 1017.54 1016.36 1015.89 1016.33 1015.94 1015.52
1028.73 1028.49 1028.22 1027.98 1027.77 1027.56 1027.37 1027.03 1026.68 1026.25 1025.73 1025.46 1025.83 1025.79 1025.42 1024.78 1024.55 1024.34 1023.60 1023.24 1023.09 1023.14 1022.54 1022.51 1022.50 1022.31 1022.07 1021.83 1021.65 1021.22 1020.99 1020.83 1020.77 1021.11 1021.89 1022.78 1022.75 1022.28 1019.71 1019.37 1018.39 1016.11 1013.29 1013.56 1013.74 1013.81 1013.58
1028.85 1028.75 1028.66 1028.31 1027.91 1027.69 1027.57 1027.38 1027.15 1026.84 1026.45 1026.26 1026.11 1025.94 1025.80 1024.84 1024.47 1024.08 1023.76 1023.67 1023.32 1022.95 1022.54 1022.28 1022.38 1022.33 1022.12 1022.01 1021.47 1020.64 1020.08 1019.44 1019.31 1019.49 1020.52 1021.17 1022.27 1022.38 1020.49 1019.61 1017.16 1013.49 1013.25 1013.02 1013.06 1012.92 1012.74
1028.65 1028.58 1028.52 1028.61 1028.26 1028.07 1027.79 1027.63 1027.38 1027.21 1027.00 1026.84 1026.66 1026.21 1026.14 1025.27 1024.74 1024.19 1023.87 1023.65 1023.39 1023.05 1022.65 1022.13 1021.93 1021.92 1022.28 1022.17 1021.69 1020.21 1019.03 1018.90 1018.84 1019.84 1020.28 1020.86 1021.54 1021.91 1020.89 1018.73 1015.47 1013.74 1012.33 1012.77 1012.67 1011.69 1011.07
1028.56 1028.39 1028.38 1028.28 1028.32 1028.40 1027.92 1027.79 1027.58 1027.47 1027.40 1027.01 1027.06 1026.84 1026.46 1025.95 1024.26 1024.13 1024.12 1023.82 1023.45 1023.01 1022.72 1022.62 1022.42 1022.52 1022.60 1022.38 1022.39 1021.06 1019.70 1019.06 1019.11 1020.28 1020.96 1020.97 1021.09 1021.48 1020.46 1018.41 1015.28 1012.97 1013.07 1012.98 1012.92 1011.42 1011.46
1028.26 1028.18 1028.30 1028.29 1028.12 1028.04 1028.08 1027.88 1027.83 1027.41 1027.18 1027.69 1027.55 1027.17 1027.04 1026.09 1024.78 1024.58 1024.19 1023.72 1023.30 1023.03 1022.74 1022.80 1022.83 1022.88 1022.90 1022.35 1022.04 1021.30 1020.03 1019.68 1019.33 1019.54 1020.44 1020.87 1020.85 1020.10 1019.03 1017.15 1014.18 1013.26 1012.91 1013.08 1012.87 1011.97 1011.58
1028.02 1027.98 1028.05 1028.24 1028.16 1027.94 1027.84 1027.81 1027.66 1027.62 1027.47 1027.11 1027.59 1027.78 1027.63 1026.66 1025.30 1024.46 1024.34 1024.44 1023.93 1023.65 1023.29 1022.83 1023.08 1022.68 1023.00 1022.83 1022.11 1021.00 1020.09 1019.66 1019.59 1019.18 1019.24 1019.39 1019.38 1018.85 1017.91 1016.40 1013.96 1012.51 1013.08 1012.68 1011.58 1011.55 1012.00
1027.68 1027.95 1027.88 1027.97 1027.97 1028.11 1027.70 1027.70 1027.61 1027.45 1027.33 1027.19 1027.51 1027.62 1027.89 1027.43 1026.12 1025.25 1024.46 1024.07 1024.10 1023.99 1024.06 1023.45 1022.73 1022.48 1021.98 1022.28 1022.31 1021.84 1020.89 1020.05 1019.47 1018.50 1018.78 1018.13 1017.06 1016.23 1016.30 1013.70 1012.89 1012.53 1012.49 1012.16 1012.11 1011.76 1011.59
Wind_Speed
21 21 22 23 23 23 23 23 22 22 22 20 17 16 15 13 12 10 9 9 8 6 5 4 3 3 1 7 5 5 12 11 7 7 10 4 7 2 1 0 3 6 3 4 9 12 15
20 20 20 21 22 22 22 22 22 21 20 19 17 15 12 9 7 6 5 5 5 4 3 4 3 3 2 5 4 6 8 4 8 8 11 9 5 2 3 0 4 2 8 13 11 13 11
19 20 20 20 19 20 21 21 21 20 20 18 17 15 12 9 7 4 2 2 3 4 6 7 5 3 11 6 3 6 6 4 5 6 5 5 3 1 1 1 2 5 9 10 7 4 6
19 19 19 20 19 19 18 18 18 18 17 16 15 14 12 10 7 6 5 5 5 4 5 6 4 1 6 3 5 4 7 3 4 5 3 4 3 2 3 2 3 5 4 6 2 9 5
19 19 19 19 19 19 19 18 17 16 16 16 15 15 14 13 10 9 4 2 5 6 6 2 2 3 5 4 2 5 4 5 4 4 5 2 0 2 1 5 4 1 8 10 10 3 10
18 19 19 19 19 18 17 18 18 19 19 18 16 15 14 14 13 11 5 4 7 3 5 1 3 2 2 3 3 4 2 3 2 2 1 2 1 3 2 3 4 8 9 6 14 10 18
17 18 19 20 19 19 19 18 17 16 16 18 18 17 16 15 14 12 2 2 0 3 8 5 3 3 2 4 3 2 3 2 2 2 2 3 4 3 6 4 7 9 13 18 18 11 18
16 16 16 17 19 20 19 19 18 18 18 17 14 13 12 11 10 8 4 4 4 3 6 1 0 0 1 2 1 2 1 3 3 2 3 2 1 2 2 4 8 11 16 16 9 11 18
15 17 15 14 15 14 18 20 20 20 20 18 16 13 10 8 0 5 8 4 1 2 2 2 1 1 2 3 3 5 5 3 3 1 2 4 2 4 6 7 10 12 12 12 16 21 5
15 16 17 17 17 17 16 17 19 20 19 19 18 13 9 6 3 1 4 2 1 2 2 7 3 3 2 3 0 2 2 3 1 3 2 4 2 3 5 8 5 9 0 9 17 14 6
15 15 15 15 15 18 18 18 18 18 18 18 16 11 9 9 7 3 2 3 1 3 2 4 2 2 1 2 4 2 1 1 3 3 4 3 1 2 5 2 2 8 15 15 10 6 7
13 14 12 13 14 16 17 20 21 21 19 18 12 9 5 3 3 3 3 1 3 1 1 2 3 5 3 1 1 2 1 1 1 2 3 5 1 3 3 6 7 15 11 5 3 2 3
13 12 14 14 15 14 16 17 19 22 22 18 8 10 5 1 3 4 1 2 2 5 1 5 4 4 4 3 1 4 3 4 5 5 5 3 2 2 3 6 3 12 10 3 2 2 4
12 12 12 13 14 16 15 18 19 21 21 15 5 4 5 3 1 1 1 2 8 0 2 1 2 5 3 5 0 5 2 3 2 3 3 6 2 1 1 3 5 6 8 4 6 6 8
10 13 11 11 15 16 16 17 18 20 19 11 1 2 2 3 2 1 3 7 2 1 2 5 4 3 0 1 2 4 2 2 1 2 6 6 3 2 1 2 4 3 4 4 4 1 5
8 10 11 11 11 12 14 16 20 23 21 8 1 0 2 5 1 2 2 3 1 1 1 1 3 2 4 6 5 5 2 2 1 2 3 1 8 1 2 3 3 2 4 1 1 6 7
13 8 10 11 12 11 12 12 17 20 23 3 1 0 2 4 3 1 4 1 2 2 2 2 2 3 2 4 3 4 3 2 1 3 1 2 2 1 2 3 1 4 3 2 1 4 5
12 14 15 14 12 12 13 13 14 17 22 6 1 2 3 2 2 2 2 2 1 2 2 2 2 2 2 2 3 3 2 2 3 4 1 1 2 5 5 2 2 2 2 4 2 2 3
10 12 13 13 13 13 12 12 14 16 15 4 3 3 1 4 3 3 3 2 2 2 2 2 2 3 1 2 4 2 2 2 6 5 4 5 3 7 4 3 3 5 5 3 3 2 9
8 11 13 13 12 13 14 12 12 15 14 2 3 3 3 5 2 1 2 1 3 0 1 1 1 1 2 3 4 3 3 2 5 5 6 7 4 8 10 12 4 10 10 12 10 7 7
9 11 11 10 11 14 15 15 13 13 13 2 3 3 2 3 2 2 1 1 2 4 1 2 3 3 2 3 6 5 3 9 5 4 5 4 7 13 18 19 21 22 24 21 19 21 12
8 11 12 12 11 14 13 14 13 12 13 2 2 1 2 2 2 2 1 2 4 4 4 3 4 2 4 7 11 18 18 13 9 5 7 4 5 1 8 19 18 22 23 22 19 24 27
8 9 11 14 13 12 14 13 13 14 7 2 1 1 1 2 3 4 4 4 1 1 6 7 6 11 13 14 12 14 15 16 15 13 9 7 5 3 10 3 12 14 14 7 9 9 21
6 8 9 10 12 11 12 12 13 12 9 3 1 1 1 5 6 6 6 12 14 11 14 14 15 16 8 9 13 15 17 20 21 22 16 9 4 2 7 4 9 4 11 9 12 9 19
4 5 6 9 9 11 11 11 11 11 12 2 1 1 2 6 8 12 14 11 14 13 14 16 13 12 3 6 7 10 6 5 2 3 5 13 9 4 6 6 15 16 6 3 2 9 15
2 4 5 6 8 9 9 10 10 10 11 2 2 2 2 3 7 10 4 6 10 13 14 12 3 1 1 3 3 5 5 7 4 2 5 5 8 7 3 6 7 6 2 2 4 9 5
2 1 3 4 5 6 8 9 9 10 8 3 2 3 2 4 4 9 11 8 4 5 7 5 5 3 1 4 7 7 9 8 6 5 3 4 4 13 13 9 10 11 5 4 7 5 4
0 1 2 3 4 4 6 7 7 8 10 2 1 3 3 4 9 12 13 14 10 8 8 4 9 3 2 5 4 5 5 3 4 2 3 6 6 6 5 6 12 7 3 5 11 18 19
2 2 3 4 6 6 5 6 6 5 6 1 2 1 2 4 6 6 14 16 15 17 11 7 8 2 4 3 3 3 6 4 8 12 6 8 11 9 9 8 8 7 15 15 15 17 15
Wind_Direction
34 32 29 30 32 33 33 33 34 39 48 52 57 61 66 72 75 76 83 93 92 82 61 32 34 40 188 74 77 337 330 356 16 33 46 50 47 33 74 13 289 257 296 270 269 275 272
35 34 34 32 30 31 33 32 33 36 39 43 44 43 43 53 57 63 75 80 88 68 41 43 99 137 104 82 339 332 327 2 27 39 41 40 47 30 97 237 274 313 283 280 280 274 267
33 32 33 34 36 34 31 31 31 30 30 31 32 33 32 29 16 15 40 47 40 27 25 23 50 83 72 80 314 331 1 17 9 26 53 52 30 298 104 240 336 294 293 287 251 267 285
35 34 33 31 30 35 37 35 32 30 28 27 22 17 15 13 19 5 337 11 22 63 57 60 36 69 72 19 324 16 5 35 41 15 29 33 8 90 349 334 231 280 260 328 112 307 291
34 31 30 30 30 28 27 29 31 30 26 20 15 10 5 2 5 1 341 60 53 68 66 47 46 4 83 319 23 2 3 356 333 35 46 57 301 33 200 307 253 48 308 308 322 282 310
34 33 30 28 25 25 27 23 19 15 13 11 9 4 359 358 357 7 29 86 54 44 18 61 94 135 58 19 336 337 330 339 6 351 209 25 5 257 196 320 335 311 312 289 304 306 308
34 33 27 26 25 23 20 20 18 15 10 3 359 356 354 353 349 5 22 112 147 79 41 46 38 61 341 323 260 351 359 323 11 59 352 27 268 285 344 297 298 294 290 294 300 332 315
35 31 29 20 19 16 14 13 9 6 2 0 357 351 346 346 341 25 49 61 40 25 100 41 112 312 293 319 309 29 314 10 4 4 320 260 297 18 318 283 273 286 295 305 316 317 315
30 31 27 20 15 7 11 7 3 360 356 356 353 349 344 337 341 36 66 73 356 279 103 86 21 343 358 324 354 4 359 6 10 338 340 275 9 318 292 300 295 293 282 303 312 321 287
27 24 16 15 9 14 13 4 1 356 349 350 351 360 359 332 138 94 60 358 279 285 97 10 9 51 328 345 313 2 46 335 232 317 311 267 349 294 290 291 295 306 71 303 308 324 329
26 21 16 12 12 9 4 2 357 359 347 352 355 9 25 42 121 68 47 320 223 238 49 346 326 19 339 320 326 90 17 143 298 320 283 48 283 291 286 280 254 279 308 307 302 281 303
20 17 11 7 17 9 359 354 352 354 355 355 2 12 355 32 65 66 288 217 241 100 268 25 310 348 334 64 33 302 248 184 291 248 216 289 310 268 307 291 257 292 295 290 209 283 248
9 11 12 15 15 7 359 355 354 355 349 356 6 29 50 17 53 348 257 220 56 70 48 346 343 349 324 314 359 13 6 25 11 340 11 303 172 234 267 293 209 330 324 328 307 333 324
4 10 7 12 7 4 3 357 356 355 349 352 30 43 44 54 34 247 259 202 68 197 304 34 307 297 306 350 70 343 342 52 97 340 335 360 333 352 31 0 329 359 347 19 310 327 315
359 8 359 4 8 5 3 358 352 352 350 356 355 52 67 34 45 208 241 50 68 228 325 322 297 281 117 111 302 327 4 359 23 349 0 340 274 133 84 334 321 25 34 352 298 215 270
356 350 352 357 358 359 359 359 354 349 353 353 87 48 37 343 240 188 46 112 190 245 284 240 329 358 329 346 333 348 1 94 89 7 329 78 287 147 114 171 96 324 110 226 79 319 299
352 343 350 349 347 352 348 3 355 349 344 338 40 287 72 346 210 4 74 53 263 208 214 273 310 294 300 319 316 321 340 132 165 145 29 159 290 24 251 203 168 164 181 130 236 295 306
1 5 8 356 348 349 349 356 358 359 343 35 8 325 17 289 41 33 58 325 339 232 186 219 240 252 272 312 278 276 283 267 150 164 316 102 286 275 304 76 355 311 281 232 265 150 241
360 1 360 359 359 351 345 347 355 1 17 321 18 307 12 297 66 36 331 291 268 253 230 210 240 231 233 268 286 235 266 139 169 173 177 169 208 301 212 142 194 238 189 209 122 294 226
10 4 357 349 357 3 354 345 357 353 7 39 329 325 23 52 33 32 342 332 316 235 267 229 276 199 230 245 237 289 271 188 188 217 184 171 216 224 255 281 307 262 226 209 212 225 238
10 1 352 1 11 10 8 0 352 351 357 304 9 69 28 346 71 339 284 292 288 321 212 230 184 237 270 291 295 242 231 295 240 209 185 205 235 242 255 271 275 268 268 258 228 229 231
19 16 9 8 23 10 6 11 358 343 341 49 348 300 165 282 289 241 213 201 266 290 252 292 245 271 226 262 265 283 290 295 270 180 190 205 267 120 267 270 263 267 268 254 245 243 242
22 19 13 11 18 14 14 8 12 8 342 23 65 73 322 242 205 268 250 238 262 20 278 273 280 302 288 278 288 289 281 272 257 247 218 182 225 230 271 354 308 271 257 222 206 216 221
12 4 3 13 19 21 18 18 17 11 17 333 67 15 244 270 248 239 271 284 284 273 270 280 291 283 306 323 296 273 257 257 256 252 244 224 176 214 291 317 249 317 280 290 241 234 213
18 11 15 10 12 15 16 15 19 17 9 355 270 258 203 263 264 278 267 277 289 287 281 281 271 283 356 330 320 297 266 256 224 43 246 230 223 250 260 239 300 289 279 125 219 287 230
26 17 21 17 12 3 10 13 10 7 5 6 299 316 257 271 235 247 311 293 292 290 287 274 292 221 224 282 238 259 283 337 271 157 38 156 217 199 186 258 271 29 55 6 226 282 82
184 34 3 5 12 9 5 8 5 13 6 360 319 353 269 286 260 284 269 269 246 257 271 290 322 309 163 243 257 263 252 240 260 261 178 136 183 218 235 260 270 270 300 283 255 26 322
84 29 353 340 338 345 353 355 1 3 13 55 315 340 299 276 284 271 269 273 270 263 267 294 321 169 166 225 244 247 253 234 282 284 206 204 185 211 214 251 279 266 231 219 347 336 320
217 301 325 333 341 332 324 324 334 357 6 77 280 98 338 253 286 306 275 270 263 266 267 235 243 186 201 227 234 269 266 252 288 273 219 248 222 274 232 245 274 285 293 299 297 292 297